LOT3825 EPWA-EPGD

Flight info

Callsign LOT3825
Flight time 0h 32m
Altitude 26000
Route OLILA L621 RILAB DCT OSLOG
Aircraft B38M/M-SDE1FGHILORVWXY/HB1

Departure

Time 2026-05-05 19:32
Airport Warsaw Chopin Airport (EPWA)

Arrival

Time 2026-05-05 20:04
Airport Gdańsk Lech Wałęsa Airport (EPGD)
Time Latitude Longitude Altitude Speed Heading
2026-05-05 18:54 52.17005 20.96838 341 ft 0 kts 276°
2026-05-05 18:55 52.17047 20.96801 337 ft 0 kts 276°
2026-05-05 18:56 52.16840 20.96982 339 ft 0 kts 276°
2026-05-05 18:56 52.16899 20.96930 336 ft 0 kts 276°
2026-05-05 19:16 52.16899 20.96931 341 ft 0 kts 276°
2026-05-05 19:27 52.16899 20.96926 341 ft 2 kts 276°
2026-05-05 19:27 52.16890 20.96865 336 ft 7 kts 217°
2026-05-05 19:28 52.16817 20.96897 340 ft 15 kts 152°
2026-05-05 19:28 52.16710 20.96990 340 ft 16 kts 152°
2026-05-05 19:28 52.16640 20.97138 340 ft 18 kts 114°
2026-05-05 19:28 52.16584 20.97336 338 ft 20 kts 114°
2026-05-05 19:29 52.16524 20.97551 339 ft 19 kts 115°
2026-05-05 19:29 52.16475 20.97723 341 ft 13 kts 114°
2026-05-05 19:29 52.16423 20.97803 347 ft 10 kts 184°
2026-05-05 19:29 52.16387 20.97783 341 ft 0 kts 205°
2026-05-05 19:30 52.16379 20.97777 344 ft 3 kts 205°
2026-05-05 19:30 52.16334 20.97742 339 ft 13 kts 205°
2026-05-05 19:31 52.16311 20.97655 339 ft 13 kts 290°
2026-05-05 19:31 52.16425 20.97246 338 ft 75 kts 294°
2026-05-05 19:31 52.16739 20.96128 350 ft 137 kts 294°
2026-05-05 19:31 52.17200 20.94458 398 ft 179 kts 294°
2026-05-05 19:32 52.17736 20.92607 1035 ft 182 kts 296°
2026-05-05 19:32 52.18332 20.90782 1698 ft 190 kts 301°
2026-05-05 19:32 52.19228 20.89068 2027 ft 215 kts 320°
2026-05-05 19:32 52.20636 20.87964 2403 ft 238 kts 346°
2026-05-05 19:33 52.22316 20.87372 2818 ft 256 kts 339°
2026-05-05 19:33 52.23923 20.86005 3279 ft 266 kts 321°
2026-05-05 19:33 52.25450 20.84219 3941 ft 272 kts 321°
2026-05-05 19:33 52.27006 20.82431 4737 ft 274 kts 321°
2026-05-05 19:34 52.28581 20.80637 5467 ft 278 kts 321°
2026-05-05 19:34 52.30178 20.78824 6213 ft 281 kts 321°
2026-05-05 19:34 52.31813 20.76972 6925 ft 284 kts 321°
2026-05-05 19:35 52.35063 20.73293 8366 ft 289 kts 321°
2026-05-05 19:35 52.36719 20.71417 9098 ft 291 kts 320°
2026-05-05 19:35 52.38387 20.69526 9814 ft 293 kts 320°
2026-05-05 19:35 52.40096 20.67586 10231 ft 307 kts 320°
2026-05-05 19:36 52.41900 20.65541 10501 ft 323 kts 321°
2026-05-05 19:36 52.43783 20.63403 10945 ft 332 kts 321°
2026-05-05 19:36 52.45682 20.61242 11652 ft 333 kts 321°
2026-05-05 19:36 52.47596 20.59061 12369 ft 336 kts 321°
2026-05-05 19:37 52.49522 20.56863 13121 ft 339 kts 321°
2026-05-05 19:37 52.51467 20.54642 13850 ft 342 kts 321°
2026-05-05 19:37 52.53430 20.52398 14528 ft 346 kts 321°
2026-05-05 19:37 52.55413 20.50129 15213 ft 349 kts 321°
2026-05-05 19:38 52.57417 20.47832 15893 ft 353 kts 321°
2026-05-05 19:38 52.59439 20.45512 16551 ft 357 kts 322°
2026-05-05 19:38 52.61483 20.43162 17208 ft 360 kts 322°
2026-05-05 19:38 52.63547 20.40789 17868 ft 363 kts 322°
2026-05-05 19:39 52.65627 20.38392 18453 ft 367 kts 322°
2026-05-05 19:39 52.67729 20.35968 19002 ft 370 kts 322°
2026-05-05 19:39 52.69837 20.33520 19553 ft 371 kts 320°
2026-05-05 19:39 52.71665 20.30561 20073 ft 370 kts 308°
2026-05-05 19:40 52.73397 20.27386 20589 ft 373 kts 309°
2026-05-05 19:40 52.75141 20.24192 21125 ft 375 kts 308°
2026-05-05 19:40 52.76891 20.20973 21678 ft 378 kts 308°
2026-05-05 19:40 52.78650 20.17730 22220 ft 381 kts 308°
2026-05-05 19:41 52.80424 20.14451 22774 ft 384 kts 308°
2026-05-05 19:41 52.82151 20.11054 23095 ft 387 kts 306°
2026-05-05 19:41 52.83870 20.07639 23333 ft 387 kts 306°
2026-05-05 19:41 52.85596 20.04219 23549 ft 387 kts 306°
2026-05-05 19:42 52.87327 20.00791 23749 ft 388 kts 306°
2026-05-05 19:42 52.89057 19.97363 23837 ft 389 kts 306°
2026-05-05 19:42 52.90787 19.93930 23841 ft 388 kts 306°
2026-05-05 19:42 52.92515 19.90495 23842 ft 388 kts 306°
2026-05-05 19:43 52.94243 19.87057 23840 ft 388 kts 306°
2026-05-05 19:43 52.95966 19.83622 23838 ft 387 kts 306°
2026-05-05 19:43 52.97688 19.80187 23850 ft 387 kts 306°
2026-05-05 19:43 52.99408 19.76749 23839 ft 387 kts 306°
2026-05-05 19:44 53.01126 19.73312 23851 ft 387 kts 306°
2026-05-05 19:44 53.02843 19.69872 23852 ft 387 kts 306°
2026-05-05 19:44 53.03979 19.67592 23856 ft 387 kts 306°
2026-05-05 19:44 53.05710 19.64165 23847 ft 388 kts 309°
2026-05-05 19:45 53.07800 19.61291 23860 ft 393 kts 320°
2026-05-05 19:45 53.10718 19.57692 23852 ft 395 kts 319°
2026-05-05 19:45 53.12922 19.54973 23850 ft 395 kts 319°
2026-05-05 19:45 53.15132 19.52254 23853 ft 395 kts 319°
2026-05-05 19:46 53.17343 19.49535 23855 ft 395 kts 319°
2026-05-05 19:46 53.18836 19.47696 23861 ft 395 kts 319°
2026-05-05 19:46 53.21039 19.44982 23692 ft 392 kts 319°
2026-05-05 19:46 53.23242 19.42264 22923 ft 397 kts 319°
2026-05-05 19:47 53.25468 19.39515 22193 ft 399 kts 319°
2026-05-05 19:47 53.27699 19.36755 21450 ft 401 kts 319°
2026-05-05 19:47 53.29950 19.33967 20775 ft 402 kts 319°
2026-05-05 19:47 53.32184 19.31195 20239 ft 399 kts 319°
2026-05-05 19:48 53.34407 19.28435 19698 ft 397 kts 319°
2026-05-05 19:48 53.36594 19.25715 19150 ft 396 kts 319°
2026-05-05 19:48 53.38825 19.22937 18626 ft 394 kts 319°
2026-05-05 19:48 53.41018 19.20202 18075 ft 393 kts 319°
2026-05-05 19:49 53.43208 19.17468 17491 ft 391 kts 319°
2026-05-05 19:49 53.45350 19.14790 16966 ft 388 kts 319°
2026-05-05 19:49 53.47553 19.12097 16327 ft 388 kts 323°
2026-05-05 19:49 53.50083 19.10275 15444 ft 404 kts 341°
2026-05-05 19:50 53.52858 19.09412 14857 ft 404 kts 346°
2026-05-05 19:50 53.55616 19.08563 14317 ft 401 kts 345°
2026-05-05 19:50 53.58351 19.07692 13788 ft 398 kts 345°
2026-05-05 19:50 53.61060 19.06813 13270 ft 394 kts 345°
2026-05-05 19:51 53.63734 19.05940 12827 ft 388 kts 345°
2026-05-05 19:51 53.66358 19.05082 12502 ft 380 kts 345°
2026-05-05 19:51 53.68919 19.04242 12234 ft 370 kts 345°
2026-05-05 19:51 53.71424 19.03419 11848 ft 365 kts 345°
2026-05-05 19:52 53.73910 19.02599 11377 ft 363 kts 345°
2026-05-05 19:52 53.76367 19.01789 11084 ft 356 kts 345°
2026-05-05 19:52 53.78760 19.00999 10883 ft 346 kts 345°
2026-05-05 19:52 53.81091 19.00229 10705 ft 336 kts 345°
2026-05-05 19:53 53.83324 18.99491 10540 ft 327 kts 345°
2026-05-05 19:53 53.85522 18.98762 10402 ft 317 kts 345°
2026-05-05 19:53 53.87656 18.98054 10274 ft 307 kts 345°
2026-05-05 19:53 53.89722 18.97368 10164 ft 298 kts 345°
2026-05-05 19:54 53.91738 18.96697 9887 ft 294 kts 345°
2026-05-05 19:54 53.93743 18.96028 9563 ft 293 kts 345°
2026-05-05 19:54 53.95742 18.95360 9208 ft 292 kts 345°
2026-05-05 19:54 53.97726 18.94696 8888 ft 290 kts 345°
2026-05-05 19:55 53.99702 18.94035 8559 ft 288 kts 345°
2026-05-05 19:55 54.01664 18.93377 8230 ft 287 kts 345°
2026-05-05 19:55 54.03612 18.92723 7919 ft 285 kts 345°
2026-05-05 19:55 54.05555 18.92070 7603 ft 284 kts 346°
2026-05-05 19:56 54.07484 18.91422 7299 ft 282 kts 346°
2026-05-05 19:56 54.09402 18.90776 6996 ft 280 kts 346°
2026-05-05 19:56 54.11313 18.90132 6693 ft 279 kts 346°
2026-05-05 19:56 54.13206 18.89493 6360 ft 275 kts 346°
2026-05-05 19:57 54.15083 18.88861 5787 ft 275 kts 347°
2026-05-05 19:57 54.16950 18.88229 5433 ft 272 kts 347°
2026-05-05 19:57 54.18792 18.87607 5167 ft 269 kts 347°
2026-05-05 19:57 54.20613 18.86990 4973 ft 263 kts 347°
2026-05-05 19:58 54.22374 18.86394 4869 ft 253 kts 347°
2026-05-05 19:58 54.24066 18.85820 4772 ft 243 kts 348°
2026-05-05 19:58 54.25689 18.85269 4702 ft 233 kts 348°
2026-05-05 19:58 54.27224 18.84620 4577 ft 223 kts 335°
2026-05-05 19:59 54.28427 18.83046 4345 ft 218 kts 310°
2026-05-05 19:59 54.29226 18.80889 4208 ft 211 kts 297°
2026-05-05 19:59 54.29818 18.78663 4102 ft 201 kts 294°
2026-05-05 19:59 54.30362 18.76480 3903 ft 200 kts 294°
2026-05-05 20:00 54.30900 18.74313 3693 ft 195 kts 294°
2026-05-05 20:00 54.31424 18.72200 3439 ft 191 kts 295°
2026-05-05 20:00 54.31937 18.70129 3191 ft 187 kts 294°
2026-05-05 20:00 54.32440 18.68096 2931 ft 184 kts 295°
2026-05-05 20:01 54.32930 18.66120 2684 ft 181 kts 295°
2026-05-05 20:01 54.33417 18.64151 2447 ft 178 kts 295°
2026-05-05 20:01 54.33883 18.62266 2235 ft 169 kts 295°
2026-05-05 20:01 54.34347 18.60397 1983 ft 168 kts 296°
2026-05-05 20:02 54.34801 18.58563 1767 ft 167 kts 296°
2026-05-05 20:02 54.35232 18.56821 1569 ft 157 kts 296°
2026-05-05 20:02 54.35649 18.55132 1314 ft 151 kts 296°
2026-05-05 20:02 54.36064 18.53456 1067 ft 150 kts 296°
2026-05-05 20:03 54.36469 18.51835 879 ft 150 kts 295°
2026-05-05 20:03 54.36876 18.50184 682 ft 150 kts 295°
2026-05-05 20:03 54.37268 18.48590 494 ft 138 kts 294°
2026-05-05 20:03 54.37584 18.47320 465 ft 94 kts 293°
2026-05-05 20:04 54.37783 18.46528 458 ft 57 kts 293°
2026-05-05 20:04 54.37923 18.45994 457 ft 43 kts 303°
2026-05-05 20:04 54.38065 18.45750 457 ft 16 kts 322°
2026-05-05 20:04 54.38143 18.45728 457 ft 12 kts 50°
2026-05-05 20:05 54.38133 18.45829 458 ft 7 kts 115°
2026-05-05 20:05 54.38121 18.45877 458 ft 5 kts 113°
2026-05-05 20:05 54.38098 18.45997 462 ft 15 kts 88°
2026-05-05 20:05 54.38173 18.46126 462 ft 13 kts 65°
2026-05-05 20:06 54.38150 18.46278 459 ft 12 kts 114°
2026-05-05 20:06 54.38113 18.46428 462 ft 15 kts 113°
2026-05-05 20:06 54.38093 18.46516 459 ft 4 kts 93°
2026-05-05 20:06 54.38112 18.46549 462 ft 4 kts 19°
2026-05-05 20:07 54.38127 18.46558 462 ft 1 kts 21°
2026-05-05 20:07 54.38129 18.46560 462 ft 0 kts 22°